Regional Weather Roundup
Issued by NWS Upton, NY

Current Version | Previous Version | Graphics & Text | Print | Product List | Glossary Off
Versions: 1 2 3 4 5 6 7 8 9 10 11 12 13 14 15 16 17 18 19 20 21 22 23 24 25 26 27 28 29 30 31 32 33 34 35 36 37 38 39 40 41 42 43 44 45 46 47 48 49 50

000
ASUS41 KOKX 300304
RWROKX

REGIONAL WEATHER ROUNDUP
NATIONAL WEATHER SERVICE NEW YORK NY
1100 PM EDT SAT AUG 29 2015

NOTE: "FAIR" INDICATES FEW OR NO CLOUDS BELOW 12,000 FEET WITH NO
SIGNIFICANT WEATHER AND/OR OBSTRUCTIONS TO VISIBILITY.

NYZ071-072-176-178-NJZ106-104-300400-
NEW YORK CITY METRO AREA


CITY           SKY/WX    TMP DP  RH WIND       PRES   REMARKS
CENTRAL PARK   CLEAR     76  59  55 VRB5      30.13S
LAGUARDIA APRT PTCLDY    76  59  55 S13G20    30.10S
KENNEDY INTL   MOCLDY    75  64  68 SW9       30.13R
NEWARK/LIBERTY MOCLDY    74  61  63 SW9       30.11S
BRNX BOT. GARD   N/A     73  59  60 S7        30.11S
TETERBORO      PTCLDY    75  59  57 S8        30.09S
$$

NYZ177-179-078>081-300400-
LONG ISLAND NEW YORK

CITY           SKY/WX    TMP DP  RH WIND       PRES   REMARKS
FARMINGDALE    PTCLDY    74  64  71 SW8       30.12S
ISLIP          MOCLDY    73  64  73 SW7       30.11S
SHIRLEY        CLEAR     72  64  76 SW7       30.13S
WESTHAMPTON    CLEAR     73  64  73 SW5       30.14S
MONTAUK POINT    N/A     73  64  73 SW6       30.13F
$$

NYZ052-065-067-300400-
HUDSON VALLEY

CITY           SKY/WX    TMP DP  RH WIND       PRES   REMARKS
WHITE PLAINS   FAIR      69  61  75 S3        30.11F
NEWBURGH       NOT AVBL
MONTGOMERY     CLEAR     65  62  90 CALM      30.10S
POUGHKEEPSIE   CLEAR     68  61  78 CALM      30.08F
ALBANY         MOCLDY    69  61  75 CALM      30.09S
$$

NJZ001-105-106-008-010-013-015-019>022-104-300400-
NEW JERSEY

CITY           SKY/WX    TMP DP  RH WIND       PRES   REMARKS
NEWARK/LIBERTY MOCLDY    74  61  63 SW9       30.11S
TETERBORO      PTCLDY    75  59  57 S8        30.09S
CALDWELL       PTCLDY    73  59  61 CALM      30.11S
MORRISTOWN     PTCLDY    64  57  77 CALM      30.11S
SOMERVILLE     PTCLDY    68  61  78 CALM      30.09S
SUSSEX         CLEAR     64  61  90 CALM      30.11S
ANDOVER          N/A     63  62  97 CALM      30.12S
TRENTON        PTCLDY    73  61  65 S8        30.11S
MILLVILLE      MOCLDY    72  62  71 SW3       30.15R
ATLANTIC CITY  MOCLDY    72  63  73 SW6       30.14S
WRIGHTSTOWN    MOCLDY    69  61  77 SW5       30.10S
TOMS RIVER     MOCLDY    66  61  82 CALM      30.14S
BELMAR         MOCLDY    72  59  64 SW7       30.13S
$$

PAZ047>061-062-071-300400-
EASTERN PENNSYLVANIA

CITY           SKY/WX    TMP DP  RH WIND       PRES   REMARKS
PHILADELPHIA   MOCLDY    75  62  64 SW8       30.13S
ALLENTOWN      PTCLDY    71  62  73 W3        30.11R
SCRANTON       PTCLDY    66  58  75 SE3       30.12S
$$

CTZ002-004>006-009-010-012-RIZ004-006-007-MAZ004-011-015-300400-
SOUTHERN NEW ENGLAND
 IN CT

CITY           SKY/WX    TMP DP  RH WIND       PRES   REMARKS
BRADLEY INTL   MOCLDY    69  59  70 S5        30.10R
HARTFORD       CLEAR     69  60  73 S5        30.11R
DANBURY        CLEAR     70  59  68 CALM      30.13S
WTRBRY/OXFORD  CLEAR     66  55  68 CALM      30.15S
BRIDGEPORT     CLEAR     76  64  66 SW9       30.11F
MERIDEN        CLEAR     64  58  80 CALM      30.12S
NEW HAVEN      CLEAR     74  64  71 VRB5      30.12S
CHESTER        NOT AVBL
GROTON         CLEAR     71  67  87 W5        30.12S
WILLIMANTIC    CLEAR     64  59  83 CALM      30.13R

 IN RI

CITY           SKY/WX    TMP DP  RH WIND       PRES   REMARKS
PROVIDENCE     PTCLDY    70  61  73 SW7       30.12S
BLOCK ISLAND   CLEAR     72  64  78 SW9       30.13S
WESTERLY       CLEAR     71  64  78 CALM      30.13S

 IN MA

CITY           SKY/WX    TMP DP  RH WIND       PRES   REMARKS
BOSTON         PTCLDY    70  58  65 S8        30.09S
WORCESTER      PTCLDY    65  55  70 SW6       30.14S
WESTFIELD      PTCLDY    63  60  90 CALM      30.11R
PROVINCETOWN   CLEAR     70  57  64 SW12      30.11S
NANTUCKET      CLEAR     70  65  84 SW8       30.14R
$$

ANZ330-335-338-340-345-350-353-355-300400-
COASTAL MARINE OBSERVATIONS


STATION/POSITION TIME  SKY/WX   TEMP    WIND        PRES    VSBY  WAVE
                                AIR SEA DIR/SP/G                  HT/PER
                 (UTC)          (F)     (DEG/KT/KT) (MB)    (MI)  (FT/S)
NY HARB ENTRANCE 0150            76 76  210/ 17/ 19 1019.3          3/11
4S FIRE IS       NOT AVBL
20S FIRE ISLAND  0150            75 75  200/ 12/ 14 1019.8          3/10
GREAT SOUTH BAY  0200            75 78  250/ 12/ 14   N/A
23SW MTP         0250            74 73  220/ 12/ 14 1019.8          3/11
HUDSON CANYON    NOT AVBL
KINGS POINT      NOT AVBL
EXECUTION ROCKS  0200            75     200/ 10/ 14   N/A
CENTRAL LI SOUND NOT AVBL
EASTERN LI SOUND 0200            72 70  220/ 12/ 14   N/A
ROBBINS REEF     NOT AVBL
$$


>>>>>>>>>>>>>>>>>>>>>>>>>>>> KEY <<<<<<<<<<<<<<<<<<<<<<<<<<<
>                                                          <
>     SKY/WX - SKY CONDITION/PRESENT WEATHER               <
>     TMP    - TEMPERATURE IN FAHRENHEIT                   <
>     DP     - DEWPOINT IN FAHRENHEIT                      <
>     RH     - RELATIVE HUMIDITY IN PERCENT                <
>     WIND   - DIRECTION AND SPEED IN MPH                  <
>     PRES   - MEAN SEA LEVEL PRESSURE IN INCHES OF HG     <
>     WCI    - WIND CHILL INDEX                            <
>     VSB    - VISIBILITY IN MILES                         <
>     HX     - HEAT INDEX                                  <
>     TC     - TEMPERATURE IN CELSIUS                      <
>     VRB    - VARIABLE WIND DIRECTION                     <
>                                                          <
>>>>>>>>>>>>>>>>>>>>>>>>>>>> KEY <<<<<<<<<<<<<<<<<<<<<<<<<<<





USA.gov is the U.S. government's official web portal to all federal, state and local government web resources and services.